TimeCST,TemperatureF,Dew PointF,Humidity,Sea Level PressureIn,VisibilityMPH,Wind Direction,Wind SpeedMPH,Gust SpeedMPH,PrecipitationIn,Events,Conditions,WindDirDegrees,DateUTC
12:54 AM,45.0,42.1,90,29.93,10.0,ENE,4.6,-,N/A,,Clear,70,2012-12-07 06:54:00
1:54 AM,44.1,41.0,89,29.92,9.0,ENE,4.6,-,N/A,,Clear,70,2012-12-07 07:54:00
2:54 AM,46.0,42.1,86,29.91,9.0,ESE,4.6,-,N/A,,Clear,110,2012-12-07 08:54:00
3:54 AM,45.0,43.0,93,29.88,7.0,ESE,6.9,-,N/A,,Overcast,110,2012-12-07 09:54:00
4:54 AM,46.0,44.1,93,29.88,6.0,East,5.8,-,N/A,,Overcast,100,2012-12-07 10:54:00
5:54 AM,46.9,45.0,93,29.88,5.0,East,6.9,-,N/A,,Overcast,90,2012-12-07 11:54:00
6:29 AM,46.4,46.4,100,29.88,5.0,ENE,3.5,-,N/A,,Overcast,70,2012-12-07 12:29:00
6:38 AM,48.2,46.4,93,29.88,5.0,ENE,3.5,-,N/A,,Overcast,70,2012-12-07 12:38:00
6:54 AM,48.0,46.0,93,29.88,6.0,NE,3.5,-,N/A,,Overcast,40,2012-12-07 12:54:00
7:54 AM,48.0,45.0,89,29.88,5.0,ENE,5.8,-,N/A,,Overcast,60,2012-12-07 13:54:00
8:54 AM,48.0,46.0,93,29.88,4.0,NE,5.8,-,N/A,,Overcast,50,2012-12-07 14:54:00
9:07 AM,48.2,46.4,93,29.88,3.0,NE,5.8,-,N/A,,Overcast,40,2012-12-07 15:07:00
9:33 AM,48.2,46.4,93,29.88,2.5,NE,4.6,-,N/A,,Overcast,50,2012-12-07 15:33:00
9:50 AM,48.2,46.4,93,29.88,3.0,NNE,3.5,-,N/A,,Overcast,30,2012-12-07 15:50:00
9:54 AM,48.0,46.0,93,29.88,3.0,North,3.5,-,N/A,,Overcast,10,2012-12-07 15:54:00
10:05 AM,48.2,46.4,93,29.88,2.5,NNE,4.6,-,N/A,,Overcast,20,2012-12-07 16:05:00
10:33 AM,48.2,46.4,93,29.87,1.5,ENE,4.6,-,N/A,,Overcast,60,2012-12-07 16:33:00
10:54 AM,48.9,46.9,93,29.87,1.2,NE,4.6,-,N/A,,Overcast,40,2012-12-07 16:54:00
11:54 AM,50.0,48.0,93,29.85,1.0,North,3.5,-,N/A,,Overcast,10,2012-12-07 17:54:00
12:54 PM,50.0,48.0,93,29.83,1.5,NW,3.5,-,N/A,,Overcast,320,2012-12-07 18:54:00
1:54 PM,50.0,48.0,93,29.82,1.8,Calm,Calm,-,N/A,,Overcast,0,2012-12-07 19:54:00
2:02 PM,50.0,48.2,94,29.82,1.8,Calm,Calm,-,N/A,,Overcast,0,2012-12-07 20:02:00
2:13 PM,50.0,48.2,94,29.82,2.0,Calm,Calm,-,N/A,,Overcast,0,2012-12-07 20:13:00
2:40 PM,51.8,48.2,88,29.83,3.0,West,5.8,-,N/A,,Overcast,280,2012-12-07 20:40:00
2:42 PM,51.8,48.2,88,29.83,3.0,West,4.6,-,N/A,,Overcast,280,2012-12-07 20:42:00
2:54 PM,50.0,48.0,93,29.83,2.5,WNW,4.6,-,N/A,,Overcast,290,2012-12-07 20:54:00
3:27 PM,50.0,46.4,87,29.83,3.0,West,5.8,-,N/A,,Overcast,260,2012-12-07 21:27:00
3:34 PM,50.0,46.4,87,29.83,3.0,WNW,4.6,-,N/A,,Overcast,290,2012-12-07 21:34:00
3:54 PM,48.9,46.9,93,29.83,2.5,NW,6.9,-,N/A,,Overcast,310,2012-12-07 21:54:00
4:07 PM,48.2,48.2,100,29.83,2.0,NW,3.5,-,N/A,,Overcast,310,2012-12-07 22:07:00
4:16 PM,48.2,48.2,100,29.83,1.8,WNW,3.5,-,N/A,,Overcast,300,2012-12-07 22:16:00
4:26 PM,48.2,48.2,100,29.83,2.0,WNW,3.5,-,N/A,,Overcast,300,2012-12-07 22:26:00
4:50 PM,48.2,48.2,100,29.83,3.0,Calm,Calm,-,N/A,,Overcast,0,2012-12-07 22:50:00
4:54 PM,48.9,48.0,97,29.84,3.0,West,3.5,-,N/A,,Overcast,280,2012-12-07 22:54:00
5:04 PM,48.2,46.4,93,29.84,3.0,WNW,4.6,-,N/A,,Overcast,300,2012-12-07 23:04:00
5:54 PM,48.9,46.9,93,29.86,4.0,Calm,Calm,-,N/A,,Overcast,0,2012-12-07 23:54:00
6:22 PM,48.2,46.4,93,29.86,4.0,Calm,Calm,-,N/A,,Overcast,0,2012-12-08 00:22:00
7:29 PM,48.2,46.4,93,29.87,5.0,Calm,Calm,-,N/A,,Overcast,0,2012-12-08 01:29:00
7:54 PM,48.0,46.9,96,29.87,3.0,Calm,Calm,-,N/A,,Overcast,0,2012-12-08 01:54:00
8:17 PM,48.2,46.4,93,29.86,3.0,Calm,Calm,-,N/A,,Overcast,0,2012-12-08 02:17:00
8:54 PM,48.0,46.9,96,29.86,3.0,Calm,Calm,-,N/A,,Overcast,0,2012-12-08 02:54:00
9:19 PM,46.4,46.4,100,29.86,2.5,Calm,Calm,-,N/A,,Mostly Cloudy,0,2012-12-08 03:19:00
9:49 PM,46.4,46.4,100,29.86,3.0,West,4.6,-,N/A,,Overcast,270,2012-12-08 03:49:00
9:54 PM,46.9,46.0,97,29.87,3.0,West,5.8,-,N/A,,Overcast,270,2012-12-08 03:54:00
10:54 PM,48.0,46.0,93,29.87,4.0,NW,5.8,-,N/A,,Overcast,310,2012-12-08 04:54:00
11:34 PM,48.2,46.4,93,29.88,2.5,Calm,Calm,-,0.04,Rain,Rain,0,2012-12-08 05:34:00
11:44 PM,48.2,46.4,93,29.88,4.0,NW,4.6,-,0.05,Rain,Light Rain,310,2012-12-08 05:44:00
11:54 PM,48.0,46.0,93,29.88,3.0,WNW,4.6,-,0.07,Rain,Light Rain,300,2012-12-08 05:54:00